Location: Novokuznetsk
(53.7500°N, 87.1000°E)
Time: 23:28:50
(UTC+06:00)

ISS - Pass Details

Date: 18 May 2021
Orbit: 417 x 422 km, 51.6° (Epoch: 16 June)

Event Time Altitude Azimuth Distance (km) Brightness Sun altitude
Rises 23:51:30 0° 273° (W) 2,370 0.2 -16.4°
Reaches altitude 10° 23:53:37 10° 269° (W) 1,505 -0.9 -16.5°
Maximum altitude 23:56:55 51° 192° (SSW) 535 -3.7 -16.5°
Enters shadow 23:57:41 41° 146° (SE) 629 -3.3 -16.5°
